Time,TemperatureF,DewpointF,PressureIn,WindDirection,WindDirectionDegrees,WindSpeedMPH,WindSpeedGustMPH,Humidity,HourlyPrecipIn,Conditions,Clouds,dailyrainin,SoftwareType,DateUTC
2013-03-19 00:00:00,30.0,22.4,30.06,South,190,7.0,7.0,73,0.00,CLR,FEW,0.00,WeatherDisplay:10.37,2013-03-19 04:00:00,
2013-03-19 00:01:00,30.0,22.4,30.06,ENE,67,6.9,6.9,73,0.00,CLR,FEW,0.00,WeatherDisplay:10.37,2013-03-19 04:01:00,
2013-03-19 00:03:00,29.9,22.6,30.05,NNE,17,5.8,5.8,74,0.00,CLR,FEW,0.00,WeatherDisplay:10.37,2013-03-19 04:03:00,
2013-03-19 00:05:00,29.8,22.5,30.05,East,87,5.8,5.8,74,0.00,CLR,FEW,0.00,WeatherDisplay:10.37,2013-03-19 04:05:00,
2013-03-19 00:10:00,29.6,22.6,30.04,NE,36,5.0,5.0,75,0.00,CLR,FEW,0.00,WeatherDisplay:10.37,2013-03-19 04:10:00,
2013-03-19 00:15:00,29.5,22.6,30.04,NE,38,4.0,4.0,75,0.00,CLR,FEW,0.00,WeatherDisplay:10.37,2013-03-19 04:15:00,
2013-03-19 00:20:00,29.6,22.3,30.04,NE,53,6.9,6.9,74,0.00,CLR,FEW,0.00,WeatherDisplay:10.37,2013-03-19 04:20:00,
2013-03-19 00:25:00,29.9,22.6,30.03,ESE,106,6.9,6.9,74,0.00,CLR,FEW,0.00,WeatherDisplay:10.37,2013-03-19 04:25:00,
2013-03-19 00:30:00,29.7,22.4,30.02,NNE,18,5.0,5.0,74,0.00,CLR,FEW,0.00,WeatherDisplay:10.37,2013-03-19 04:30:00,
2013-03-19 00:35:00,29.6,22.3,30.02,NE,49,3.5,3.5,74,0.00,CLR,FEW,0.00,WeatherDisplay:10.37,2013-03-19 04:35:00,
2013-03-19 00:40:00,29.4,22.5,30.02,North,3,3.5,0.0,75,0.00,CLR,FEW,0.00,WeatherDisplay:10.37,2013-03-19 04:40:00,
2013-03-19 00:45:00,29.6,22.6,30.02,East,87,4.6,4.6,75,0.00,CLR,FEW,0.00,WeatherDisplay:10.37,2013-03-19 04:45:00,
2013-03-19 00:50:00,29.4,22.5,30.02,East,86,4.0,4.0,75,0.00,CLR,FEW,0.00,WeatherDisplay:10.37,2013-03-19 04:50:00,
2013-03-19 00:55:00,29.5,22.6,30.01,SE,139,6.0,6.0,75,0.00,-SN,FEW,0.00,WeatherDisplay:10.37,2013-03-19 04:55:00,
2013-03-19 01:00:00,29.8,22.5,30.01,East,97,6.9,6.9,74,0.00,-SN,FEW,0.00,WeatherDisplay:10.37,2013-03-19 05:00:00,
2013-03-19 01:05:00,29.8,22.8,30.00,East,86,1.0,5.0,75,0.00,-SN,FEW,0.00,WeatherDisplay:10.37,2013-03-19 05:05:00,
2013-03-19 01:10:00,29.7,22.8,30.00,ENE,73,1.0,3.0,75,0.00,-SN,FEW,0.00,WeatherDisplay:10.37,2013-03-19 05:10:00,
2013-03-19 01:15:00,29.8,22.8,30.00,ENE,76,1.0,5.0,75,0.00,-SN,FEW,0.00,WeatherDisplay:10.37,2013-03-19 05:15:00,
2013-03-19 01:20:00,29.8,22.8,30.00,East,84,3.0,5.0,75,0.00,-SN,FEW,0.00,WeatherDisplay:10.37,2013-03-19 05:20:00,
2013-03-19 01:25:00,29.7,22.7,30.00,ESE,109,0.0,4.0,75,0.00,-SN,FEW,0.00,WeatherDisplay:10.37,2013-03-19 05:25:00,
2013-03-19 01:30:00,29.7,22.8,30.00,East,97,0.0,5.0,75,0.00,-SN,FEW,0.00,WeatherDisplay:10.37,2013-03-19 05:30:00,
2013-03-19 01:35:00,29.7,23.1,30.00,East,96,1.0,2.0,76,0.00,-SN,FEW,0.00,WeatherDisplay:10.37,2013-03-19 05:35:00,
2013-03-19 01:40:00,29.8,22.9,29.99,East,85,1.0,6.0,75,0.00,-SN,FEW,0.00,WeatherDisplay:10.37,2013-03-19 05:40:00,
2013-03-19 01:45:00,29.8,23.2,29.98,ENE,71,2.0,4.0,76,0.00,-SN,FEW,0.00,WeatherDisplay:10.37,2013-03-19 05:45:00,
2013-03-19 01:50:00,30.0,23.0,29.98,East,87,2.0,6.0,75,0.00,-SN,FEW,0.00,WeatherDisplay:10.37,2013-03-19 05:50:00,
2013-03-19 01:55:00,29.9,22.9,29.98,ENE,78,1.0,5.0,75,0.00,-SN,FEW,0.00,WeatherDisplay:10.37,2013-03-19 05:55:00,
2013-03-19 02:00:00,29.8,23.2,29.97,NE,52,1.0,7.0,76,0.00,-SN,FEW,0.00,WeatherDisplay:10.37,2013-03-19 06:00:00,
2013-03-19 02:05:00,29.8,23.1,29.97,ENE,61,2.0,4.0,76,0.00,-SN,FEW,0.00,WeatherDisplay:10.37,2013-03-19 06:05:00,
2013-03-19 02:10:00,29.8,23.2,29.97,ENE,67,2.0,5.0,76,0.00,-SN,FEW,0.00,WeatherDisplay:10.37,2013-03-19 06:10:00,
2013-03-19 02:15:00,29.7,23.1,29.96,NE,50,1.0,7.0,76,0.00,OVC,FEW,0.00,WeatherDisplay:10.37,2013-03-19 06:15:00,
2013-03-19 02:20:00,29.9,23.3,29.96,ENE,64,2.0,7.0,76,0.00,OVC,FEW,0.00,WeatherDisplay:10.37,2013-03-19 06:20:00,
2013-03-19 02:25:00,30.0,23.0,29.95,East,84,3.0,6.0,75,0.00,OVC,FEW,0.00,WeatherDisplay:10.37,2013-03-19 06:25:00,
2013-03-19 02:30:00,30.1,23.1,29.95,East,81,3.0,7.0,75,0.00,OVC,FEW,0.00,WeatherDisplay:10.37,2013-03-19 06:30:00,
2013-03-19 02:35:00,30.2,22.9,29.94,ENE,77,5.0,9.0,74,0.00,OVC,FEW,0.00,WeatherDisplay:10.37,2013-03-19 06:35:00,
2013-03-19 02:40:00,30.2,23.2,29.93,ENE,62,1.0,7.0,75,0.00,OVC,FEW,0.00,WeatherDisplay:10.37,2013-03-19 06:40:00,
2013-03-19 02:45:00,29.9,23.0,29.93,NE,49,3.0,8.0,75,0.00,OVC,FEW,0.00,WeatherDisplay:10.37,2013-03-19 06:45:00,
2013-03-19 02:50:00,30.1,23.1,29.93,ENE,63,3.0,8.0,75,0.00,OVC,FEW,0.00,WeatherDisplay:10.37,2013-03-19 06:50:00,
2013-03-19 02:55:00,30.3,23.0,29.92,East,89,2.0,12.0,74,0.00,OVC,FEW,0.00,WeatherDisplay:10.37,2013-03-19 06:55:00,
2013-03-19 03:00:00,30.3,23.0,29.92,East,84,2.0,6.0,74,0.00,OVC,FEW,0.00,WeatherDisplay:10.37,2013-03-19 07:00:00,
2013-03-19 03:05:00,30.4,23.1,29.92,ENE,78,2.0,9.0,74,0.00,OVC,FEW,0.00,WeatherDisplay:10.37,2013-03-19 07:05:00,
2013-03-19 03:10:00,30.5,23.2,29.91,ENE,72,5.0,9.0,74,0.00,OVC,FEW,0.00,WeatherDisplay:10.37,2013-03-19 07:10:00,
2013-03-19 03:15:00,30.6,23.3,29.90,East,81,5.0,7.0,74,0.00,-SN,FEW,0.00,WeatherDisplay:10.37,2013-03-19 07:15:00,
2013-03-19 03:20:00,30.7,23.4,29.90,East,90,2.0,9.0,74,0.00,-SN,FEW,0.00,WeatherDisplay:10.37,2013-03-19 07:20:00,
2013-03-19 03:25:00,30.6,23.3,29.90,East,82,2.0,8.0,74,0.00,-SN,FEW,0.00,WeatherDisplay:10.37,2013-03-19 07:25:00,
2013-03-19 03:30:00,30.5,23.5,29.89,ENE,67,5.0,7.0,75,0.00,-SN,FEW,0.00,WeatherDisplay:10.37,2013-03-19 07:30:00,
2013-03-19 03:35:00,30.5,23.5,29.89,ENE,61,1.0,5.0,75,0.00,OVC,FEW,0.00,WeatherDisplay:10.37,2013-03-19 07:35:00,
2013-03-19 03:40:00,30.5,23.5,29.90,ENE,58,1.0,6.0,75,0.00,OVC,FEW,0.00,WeatherDisplay:10.37,2013-03-19 07:40:00,
2013-03-19 03:45:00,30.4,23.7,29.90,ENE,62,2.0,9.0,76,0.00,OVC,FEW,0.00,WeatherDisplay:10.37,2013-03-19 07:45:00,
2013-03-19 03:50:00,30.2,23.5,29.90,ENE,75,0.0,6.0,76,0.00,OVC,FEW,0.00,WeatherDisplay:10.37,2013-03-19 07:50:00,
2013-03-19 03:55:00,30.1,23.8,29.90,ENE,72,0.0,2.0,77,0.00,OVC,FEW,0.00,WeatherDisplay:10.37,2013-03-19 07:55:00,
2013-03-19 04:00:00,30.1,23.8,29.90,ENE,66,1.0,4.0,77,0.00,OVC,FEW,0.00,WeatherDisplay:10.37,2013-03-19 08:00:00,
2013-03-19 04:05:00,30.0,23.7,29.90,NE,54,1.0,5.0,77,0.00,OVC,FEW,0.00,WeatherDisplay:10.37,2013-03-19 08:05:00,
2013-03-19 04:10:00,29.9,23.6,29.89,NE,50,2.0,4.0,77,0.00,OVC,FEW,0.00,WeatherDisplay:10.37,2013-03-19 08:10:00,
2013-03-19 04:15:00,30.0,23.7,29.89,NE,50,3.0,6.0,77,0.00,OVC,FEW,0.00,WeatherDisplay:10.37,2013-03-19 08:15:00,
2013-03-19 04:20:00,30.0,23.7,29.89,ENE,58,2.0,5.0,77,0.00,OVC,FEW,0.00,WeatherDisplay:10.37,2013-03-19 08:20:00,
2013-03-19 04:25:00,30.0,23.7,29.88,ENE,65,2.0,6.0,77,0.00,OVC,FEW,0.00,WeatherDisplay:10.37,2013-03-19 08:25:00,
2013-03-19 04:30:00,30.1,23.5,29.88,ENE,67,2.0,6.0,76,0.00,OVC,FEW,0.00,WeatherDisplay:10.37,2013-03-19 08:30:00,
2013-03-19 04:35:00,30.2,23.6,29.88,ENE,74,1.0,6.0,76,0.00,OVC,FEW,0.00,WeatherDisplay:10.37,2013-03-19 08:35:00,
2013-03-19 04:40:00,30.2,23.5,29.88,ENE,66,2.0,6.0,76,0.00,OVC,FEW,0.00,WeatherDisplay:10.37,2013-03-19 08:40:00,
2013-03-19 04:45:00,30.2,23.5,29.87,East,81,2.0,7.0,76,0.00,-SN,FEW,0.00,WeatherDisplay:10.37,2013-03-19 08:45:00,
2013-03-19 04:50:00,30.2,23.6,29.87,East,88,2.0,6.0,76,0.00,-SN,FEW,0.00,WeatherDisplay:10.37,2013-03-19 08:50:00,
2013-03-19 04:56:00,30.3,23.3,29.86,East,100,6.9,6.9,75,0.00,-SN,FEW,0.00,WeatherDisplay:10.37,2013-03-19 08:56:00,
2013-03-19 05:01:00,30.5,23.5,29.86,East,82,9.2,9.2,75,0.00,-SN,FEW,0.00,WeatherDisplay:10.37,2013-03-19 09:01:00,
2013-03-19 05:06:00,30.4,23.4,29.86,ENE,75,5.8,5.8,75,0.00,-SN,FEW,0.00,WeatherDisplay:10.37,2013-03-19 09:06:00,
2013-03-19 05:11:00,30.2,23.5,29.86,NE,37,9.2,9.2,76,0.00,-SN,FEW,0.00,WeatherDisplay:10.37,2013-03-19 09:11:00,
2013-03-19 05:16:00,30.0,23.7,29.86,NE,46,5.8,5.8,77,0.00,-SN,FEW,0.00,WeatherDisplay:10.37,2013-03-19 09:16:00,
2013-03-19 05:21:00,30.0,23.7,29.86,East,90,6.0,6.0,77,0.00,-SN,FEW,0.00,WeatherDisplay:10.37,2013-03-19 09:21:00,
2013-03-19 05:26:00,30.2,23.9,29.86,ENE,76,4.0,4.0,77,0.00,-SN,FEW,0.00,WeatherDisplay:10.37,2013-03-19 09:26:00,
2013-03-19 05:31:00,30.2,23.9,29.85,ENE,63,4.0,4.0,77,0.00,-SN,FEW,0.00,WeatherDisplay:10.37,2013-03-19 09:31:00,
2013-03-19 05:36:00,30.4,24.1,29.85,East,101,7.0,7.0,77,0.00,OVC,FEW,0.00,WeatherDisplay:10.37,2013-03-19 09:36:00,
2013-03-19 05:41:00,30.4,23.7,29.84,NE,47,5.0,5.0,76,0.00,OVC,FEW,0.00,WeatherDisplay:10.37,2013-03-19 09:41:00,
2013-03-19 05:46:00,30.4,24.1,29.84,NE,51,5.0,5.0,77,0.00,OVC,FEW,0.00,WeatherDisplay:10.37,2013-03-19 09:46:00,
2013-03-19 05:51:00,30.2,23.9,29.83,East,91,7.0,7.0,77,0.00,OVC,FEW,0.00,WeatherDisplay:10.37,2013-03-19 09:51:00,
2013-03-19 05:56:00,30.3,24.3,29.83,North,3,6.9,6.9,78,0.00,OVC,FEW,0.00,WeatherDisplay:10.37,2013-03-19 09:56:00,
2013-03-19 06:01:00,30.4,24.1,29.83,ENE,69,7.0,7.0,77,0.00,OVC,FEW,0.00,WeatherDisplay:10.37,2013-03-19 10:01:00,
2013-03-19 06:06:00,30.5,24.1,29.83,NE,46,8.1,8.1,77,0.00,OVC,FEW,0.00,WeatherDisplay:10.37,2013-03-19 10:06:00,
2013-03-19 06:11:00,30.7,24.0,29.83,East,79,8.1,8.1,76,0.00,OVC,FEW,0.00,WeatherDisplay:10.37,2013-03-19 10:11:00,
2013-03-19 06:16:00,30.7,24.0,29.82,ESE,109,5.8,5.8,76,0.00,OVC,FEW,0.00,WeatherDisplay:10.37,2013-03-19 10:16:00,
2013-03-19 06:21:00,30.6,24.2,29.82,East,98,6.9,6.9,77,0.00,OVC,FEW,0.00,WeatherDisplay:10.37,2013-03-19 10:21:00,
2013-03-19 06:26:00,30.6,23.9,29.82,NE,53,6.0,6.0,76,0.00,OVC,FEW,0.00,WeatherDisplay:10.37,2013-03-19 10:26:00,
2013-03-19 06:31:00,30.6,24.2,29.82,ENE,70,8.1,8.1,77,0.00,OVC,FEW,0.00,WeatherDisplay:10.37,2013-03-19 10:31:00,
2013-03-19 06:36:00,30.6,24.2,29.82,NE,42,7.0,7.0,77,0.00,OVC,FEW,0.00,WeatherDisplay:10.37,2013-03-19 10:36:00,
2013-03-19 06:41:00,30.4,24.4,29.82,NE,36,5.0,5.0,78,0.00,OVC,FEW,0.00,WeatherDisplay:10.37,2013-03-19 10:41:00,
2013-03-19 06:46:00,30.4,24.4,29.82,NNE,27,5.0,5.0,78,0.00,OVC,FEW,0.00,WeatherDisplay:10.37,2013-03-19 10:46:00,
2013-03-19 06:51:00,30.5,24.1,29.81,NE,34,7.0,7.0,77,0.00,OVC,FEW,0.00,WeatherDisplay:10.37,2013-03-19 10:51:00,
2013-03-19 06:56:00,30.5,24.1,29.80,North,11,6.9,6.9,77,0.00,OVC,FEW,0.00,WeatherDisplay:10.37,2013-03-19 10:56:00,
2013-03-19 07:01:00,30.6,24.2,29.80,East,80,10.4,10.4,77,0.00,OVC,FEW,0.00,WeatherDisplay:10.37,2013-03-19 11:01:00,
2013-03-19 07:06:00,30.8,24.4,29.80,NE,38,10.4,10.4,77,0.00,OVC,FEW,0.00,WeatherDisplay:10.37,2013-03-19 11:06:00,
2013-03-19 07:11:00,30.9,24.5,29.79,ESE,110,9.0,9.0,77,0.00,OVC,FEW,0.00,WeatherDisplay:10.37,2013-03-19 11:11:00,
2013-03-19 07:16:00,30.8,24.4,29.79,NNE,14,7.0,7.0,77,0.00,OVC,FEW,0.00,WeatherDisplay:10.37,2013-03-19 11:16:00,
2013-03-19 07:21:00,30.7,24.3,29.78,NE,40,9.2,9.2,77,0.00,OVC,FEW,0.00,WeatherDisplay:10.37,2013-03-19 11:21:00,
2013-03-19 07:26:00,30.8,24.7,29.78,NE,49,9.0,9.0,78,0.00,OVC,FEW,0.00,WeatherDisplay:10.37,2013-03-19 11:26:00,
2013-03-19 07:31:00,30.8,24.7,29.77,NE,52,15.0,15.0,78,0.00,OVC,FEW,0.00,WeatherDisplay:10.37,2013-03-19 11:31:00,
2013-03-19 07:36:00,31.0,24.9,29.78,NE,45,6.9,6.9,78,0.00,OVC,FEW,0.00,WeatherDisplay:10.37,2013-03-19 11:36:00,
2013-03-19 07:41:00,31.2,25.1,29.78,ENE,57,9.0,9.0,78,0.00,OVC,FEW,0.00,WeatherDisplay:10.37,2013-03-19 11:41:00,
2013-03-19 07:46:00,31.3,24.9,29.78,NE,49,8.1,8.1,77,0.00,OVC,FEW,0.00,WeatherDisplay:10.37,2013-03-19 11:46:00,
2013-03-19 07:51:00,31.4,25.0,29.77,NNE,21,9.2,9.2,77,0.00,OVC,FEW,0.00,WeatherDisplay:10.37,2013-03-19 11:51:00,
2013-03-19 07:56:00,31.7,25.3,29.77,ENE,71,8.1,8.1,77,0.00,OVC,FEW,0.00,WeatherDisplay:10.37,2013-03-19 11:56:00,
2013-03-19 08:01:00,31.9,25.5,29.77,East,100,8.0,8.0,77,0.00,OVC,FEW,0.00,WeatherDisplay:10.37,2013-03-19 12:01:00,
2013-03-19 08:06:00,32.0,25.6,29.76,NE,53,9.0,9.0,77,0.00,OVC,FEW,0.00,WeatherDisplay:10.37,2013-03-19 12:06:00,
2013-03-19 08:11:00,32.0,25.9,29.75,East,100,9.0,9.0,78,0.00,OVC,FEW,0.00,WeatherDisplay:10.37,2013-03-19 12:11:00,
2013-03-19 08:16:00,32.1,26.0,29.75,ESE,103,12.0,12.0,78,0.00,OVC,FEW,0.00,WeatherDisplay:10.37,2013-03-19 12:16:00,
2013-03-19 08:21:00,32.3,26.2,29.74,NE,52,10.4,10.4,78,0.00,OVC,FEW,0.00,WeatherDisplay:10.37,2013-03-19 12:21:00,
2013-03-19 08:26:00,32.5,26.1,29.75,North,9,8.1,8.1,77,0.00,OVC,FEW,0.00,WeatherDisplay:10.37,2013-03-19 12:26:00,
2013-03-19 08:31:00,32.5,26.1,29.74,ENE,66,10.4,10.4,77,0.00,OVC,FEW,0.00,WeatherDisplay:10.37,2013-03-19 12:31:00,
2013-03-19 08:36:00,32.7,26.3,29.74,ENE,66,9.0,9.0,77,0.00,OVC,FEW,0.00,WeatherDisplay:10.37,2013-03-19 12:36:00,
2013-03-19 08:41:00,32.8,26.4,29.74,East,87,7.0,7.0,77,0.00,OVC,FEW,0.00,WeatherDisplay:10.37,2013-03-19 12:41:00,
2013-03-19 08:46:00,33.1,26.7,29.74,East,95,11.5,11.5,77,0.00,OVC,FEW,0.00,WeatherDisplay:10.37,2013-03-19 12:46:00,
2013-03-19 08:51:00,33.1,26.7,29.74,NE,42,6.0,6.0,77,0.00,OVC,FEW,0.00,WeatherDisplay:10.37,2013-03-19 12:51:00,
2013-03-19 08:56:00,33.1,26.7,29.74,East,90,7.0,7.0,77,0.00,OVC,FEW,0.00,WeatherDisplay:10.37,2013-03-19 12:56:00,
2013-03-19 09:01:00,33.2,26.8,29.73,NE,37,8.1,8.1,77,0.00,OVC,FEW,0.00,WeatherDisplay:10.37,2013-03-19 13:01:00,
2013-03-19 09:06:00,33.3,26.9,29.74,NNE,22,7.0,7.0,77,0.00,-RA,FEW,0.00,WeatherDisplay:10.37,2013-03-19 13:06:00,
2013-03-19 09:11:00,33.4,27.0,29.74,NE,36,6.9,6.9,77,0.00,-RA,FEW,0.00,WeatherDisplay:10.37,2013-03-19 13:11:00,
2013-03-19 09:16:00,33.6,27.2,29.73,ENE,75,8.1,8.1,77,0.00,-RA,FEW,0.00,WeatherDisplay:10.37,2013-03-19 13:16:00,
2013-03-19 09:21:00,33.9,27.1,29.73,NNE,15,7.0,7.0,76,0.00,-RA,FEW,0.00,WeatherDisplay:10.37,2013-03-19 13:21:00,
2013-03-19 09:26:00,34.0,27.5,29.73,NE,47,6.0,6.0,77,0.00,-RA,FEW,0.00,WeatherDisplay:10.37,2013-03-19 13:26:00,
2013-03-19 09:31:00,34.1,27.3,29.73,North,4,3.5,3.5,76,0.00,-RA,FEW,0.00,WeatherDisplay:10.37,2013-03-19 13:31:00,
2013-03-19 09:36:00,34.2,27.4,29.73,NE,34,4.0,4.0,76,0.00,-RA,FEW,0.00,WeatherDisplay:10.37,2013-03-19 13:36:00,
2013-03-19 09:41:00,34.1,27.3,29.73,NNE,29,7.0,7.0,76,0.00,-RA,FEW,0.00,WeatherDisplay:10.37,2013-03-19 13:41:00,
2013-03-19 09:46:00,34.1,27.3,29.73,NNE,14,8.1,8.1,76,0.00,-RA,FEW,0.00,WeatherDisplay:10.37,2013-03-19 13:46:00,
2013-03-19 09:51:00,34.0,27.5,29.73,ENE,64,8.1,8.1,77,0.00,-RA,FEW,0.00,WeatherDisplay:10.37,2013-03-19 13:51:00,
2013-03-19 09:56:00,34.0,27.5,29.73,NNW,331,5.8,5.8,77,0.00,-RA,FEW,0.00,WeatherDisplay:10.37,2013-03-19 13:56:00,
2013-03-19 10:01:00,33.9,27.8,29.73,NNE,29,3.0,3.0,78,0.00,-RA,FEW,0.00,WeatherDisplay:10.37,2013-03-19 14:01:00,
2013-03-19 10:06:00,34.0,27.9,29.73,NE,36,3.5,3.5,78,0.00,-RA,FEW,0.00,WeatherDisplay:10.37,2013-03-19 14:06:00,
2013-03-19 10:11:00,34.1,28.0,29.73,ESE,110,5.0,5.0,78,0.00,-RA,FEW,0.00,WeatherDisplay:10.37,2013-03-19 14:11:00,
2013-03-19 10:16:00,34.1,28.0,29.72,NE,47,5.8,5.8,78,0.00,OVC,FEW,0.00,WeatherDisplay:10.37,2013-03-19 14:16:00,
2013-03-19 10:21:00,34.1,28.0,29.71,NNE,15,4.0,4.0,78,0.00,OVC,FEW,0.00,WeatherDisplay:10.37,2013-03-19 14:21:00,
2013-03-19 10:26:00,34.1,28.0,29.71,North,11,9.2,9.2,78,0.00,OVC,FEW,0.00,WeatherDisplay:10.37,2013-03-19 14:26:00,
2013-03-19 10:31:00,34.3,28.2,29.71,NNE,18,6.9,6.9,78,0.00,OVC,FEW,0.00,WeatherDisplay:10.37,2013-03-19 14:31:00,
2013-03-19 10:36:00,34.5,28.0,29.70,NE,35,8.0,8.0,77,0.00,OVC,FEW,0.00,WeatherDisplay:10.37,2013-03-19 14:36:00,
2013-03-19 10:41:00,34.7,28.2,29.70,NE,46,5.0,5.0,77,0.00,OVC,FEW,0.00,WeatherDisplay:10.37,2013-03-19 14:41:00,
2013-03-19 10:46:00,34.7,28.2,29.69,NE,35,6.9,6.9,77,0.00,OVC,FEW,0.00,WeatherDisplay:10.37,2013-03-19 14:46:00,
2013-03-19 10:51:00,35.0,28.5,29.68,ESE,112,10.0,10.0,77,0.00,OVC,FEW,0.00,WeatherDisplay:10.37,2013-03-19 14:51:00,
2013-03-19 10:56:00,34.9,28.4,29.67,NE,46,11.5,11.5,77,0.00,OVC,FEW,0.00,WeatherDisplay:10.37,2013-03-19 14:56:00,
2013-03-19 11:01:00,35.1,28.6,29.66,NE,37,7.0,7.0,77,0.00,OVC,FEW,0.00,WeatherDisplay:10.37,2013-03-19 15:01:00,
2013-03-19 11:07:00,35.3,28.8,29.66,NNE,24,8.1,8.1,77,0.00,OVC,FEW,0.00,WeatherDisplay:10.37,2013-03-19 15:07:00,
2013-03-19 11:12:00,35.1,28.9,29.67,North,1,10.4,10.4,78,0.00,OVC,FEW,0.00,WeatherDisplay:10.37,2013-03-19 15:12:00,
2013-03-19 11:17:00,35.0,28.8,29.67,North,8,9.0,9.0,78,0.00,OVC,FEW,0.00,WeatherDisplay:10.37,2013-03-19 15:17:00,
2013-03-19 11:22:00,35.1,28.9,29.67,NE,55,5.0,5.0,78,0.00,OVC,FEW,0.00,WeatherDisplay:10.37,2013-03-19 15:22:00,
2013-03-19 11:27:00,35.4,29.2,29.67,NE,53,6.0,6.0,78,0.01,RA,FEW,0.01,WeatherDisplay:10.37,2013-03-19 15:27:00,
2013-03-19 11:32:00,35.6,29.1,29.67,ENE,70,5.8,5.8,77,0.01,RA,FEW,0.01,WeatherDisplay:10.37,2013-03-19 15:32:00,
2013-03-19 11:37:00,35.5,29.0,29.67,NNE,26,6.9,6.9,77,0.01,OVC,FEW,0.01,WeatherDisplay:10.37,2013-03-19 15:37:00,
2013-03-19 11:42:00,35.8,29.3,29.66,ENE,60,6.9,6.9,77,0.01,OVC,FEW,0.01,WeatherDisplay:10.37,2013-03-19 15:42:00,
2013-03-19 11:47:00,35.8,29.3,29.65,East,100,8.0,8.0,77,0.01,OVC,FEW,0.01,WeatherDisplay:10.37,2013-03-19 15:47:00,
2013-03-19 11:52:00,35.9,29.4,29.64,ENE,68,4.6,4.6,77,0.01,OVC,FEW,0.01,WeatherDisplay:10.37,2013-03-19 15:52:00,
2013-03-19 11:57:00,36.1,29.6,29.64,NNE,20,6.0,6.0,77,0.01,OVC,FEW,0.01,WeatherDisplay:10.37,2013-03-19 15:57:00,
2013-03-19 12:03:00,36.1,29.6,29.63,ENE,76,4.6,4.6,77,0.01,OVC,FEW,0.01,WeatherDisplay:10.37,2013-03-19 16:03:00,
2013-03-19 12:08:00,36.2,29.7,29.62,ENE,71,6.0,6.0,77,0.01,OVC,FEW,0.01,WeatherDisplay:10.37,2013-03-19 16:08:00,
2013-03-19 12:13:00,36.3,29.8,29.61,East,80,11.5,11.5,77,0.01,OVC,FEW,0.01,WeatherDisplay:10.37,2013-03-19 16:13:00,
2013-03-19 12:18:00,36.4,29.9,29.61,NE,48,8.1,8.1,77,0.01,OVC,FEW,0.01,WeatherDisplay:10.37,2013-03-19 16:18:00,
2013-03-19 12:23:00,36.2,29.7,29.61,NE,40,6.9,6.9,77,0.01,OVC,FEW,0.01,WeatherDisplay:10.37,2013-03-19 16:23:00,
2013-03-19 12:28:00,36.0,29.8,29.61,NE,55,6.0,6.0,78,0.00,OVC,FEW,0.01,WeatherDisplay:10.37,2013-03-19 16:28:00,
2013-03-19 12:33:00,36.0,29.8,29.61,NNE,24,4.6,4.6,78,0.00,OVC,FEW,0.01,WeatherDisplay:10.37,2013-03-19 16:33:00,
2013-03-19 12:38:00,35.9,29.7,29.61,NE,50,5.0,5.0,78,0.00,OVC,FEW,0.01,WeatherDisplay:10.37,2013-03-19 16:38:00,
2013-03-19 12:43:00,35.8,29.6,29.62,North,0,4.6,4.6,78,0.00,OVC,FEW,0.01,WeatherDisplay:10.37,2013-03-19 16:43:00,
2013-03-19 12:48:00,35.5,29.6,29.62,NE,49,6.9,6.9,79,0.00,OVC,FEW,0.01,WeatherDisplay:10.37,2013-03-19 16:48:00,
2013-03-19 12:53:00,35.5,29.9,29.62,North,6,6.9,6.9,80,0.00,OVC,FEW,0.01,WeatherDisplay:10.37,2013-03-19 16:53:00,
2013-03-19 12:59:00,35.4,29.8,29.63,North,9,8.1,8.1,80,0.00,OVC,FEW,0.01,WeatherDisplay:10.37,2013-03-19 16:59:00,
2013-03-19 13:04:00,35.1,29.9,29.64,WNW,294,8.0,8.0,81,0.00,OVC,FEW,0.01,WeatherDisplay:10.37,2013-03-19 17:04:00,
2013-03-19 13:09:00,34.9,30.0,29.65,NNW,338,3.5,3.5,82,0.01,RA,FEW,0.02,WeatherDisplay:10.37,2013-03-19 17:09:00,
2013-03-19 13:14:00,34.9,30.0,29.66,NW,322,2.3,2.3,82,0.01,-RA,FEW,0.02,WeatherDisplay:10.37,2013-03-19 17:14:00,
2013-03-19 13:19:00,34.9,30.3,29.68,WNW,296,3.5,3.5,83,0.02,-RA,FEW,0.03,WeatherDisplay:10.37,2013-03-19 17:19:00,
2013-03-19 13:24:00,34.9,30.3,29.66,North,0,2.3,2.3,83,0.02,-RA,FEW,0.03,WeatherDisplay:10.37,2013-03-19 17:24:00,
2013-03-19 13:29:00,35.0,30.4,29.66,NNW,341,2.3,2.3,83,0.03,-RA,FEW,0.04,WeatherDisplay:10.37,2013-03-19 17:29:00,
2013-03-19 13:34:00,35.3,30.7,29.66,NNW,340,2.3,0.0,83,0.03,-RA,FEW,0.04,WeatherDisplay:10.37,2013-03-19 17:34:00,
2013-03-19 13:39:00,35.6,30.6,29.65,North,10,3.5,3.5,82,0.03,-RA,FEW,0.04,WeatherDisplay:10.37,2013-03-19 17:39:00,
2013-03-19 13:44:00,35.9,30.9,29.64,North,3,3.0,3.0,82,0.03,-RA,FEW,0.04,WeatherDisplay:10.37,2013-03-19 17:44:00,
2013-03-19 13:49:00,36.2,30.9,29.63,North,0,4.6,4.6,81,0.04,-RA,FEW,0.05,WeatherDisplay:10.37,2013-03-19 17:49:00,
2013-03-19 13:55:00,36.1,30.5,29.63,North,5,3.5,3.5,80,0.04,RA,FEW,0.05,WeatherDisplay:10.37,2013-03-19 17:55:00,
2013-03-19 14:00:00,35.9,30.3,29.63,North,355,0.0,4.0,80,0.00,OVC,FEW,0.05,WeatherDisplay:10.37,2013-03-19 18:00:00,
2013-03-19 14:05:00,35.7,30.4,29.64,NNW,344,1.0,5.0,81,0.00,RA,FEW,0.06,WeatherDisplay:10.37,2013-03-19 18:05:00,
2013-03-19 14:10:00,35.5,30.3,29.65,NNW,327,0.0,3.0,81,0.00,RA,FEW,0.06,WeatherDisplay:10.37,2013-03-19 18:10:00,
2013-03-19 14:15:00,35.4,30.1,29.63,NNW,347,0.0,2.0,81,0.00,OVC,FEW,0.06,WeatherDisplay:10.37,2013-03-19 18:15:00,
2013-03-19 14:20:00,35.2,30.0,29.63,North,356,0.0,2.0,81,0.00,OVC,FEW,0.06,WeatherDisplay:10.37,2013-03-19 18:20:00,
2013-03-19 14:25:00,35.0,29.8,29.61,NNE,20,2.0,6.0,81,0.00,RA,FEW,0.07,WeatherDisplay:10.37,2013-03-19 18:25:00,
2013-03-19 14:30:00,34.9,29.6,29.59,NNE,16,3.0,6.0,81,0.00,RA,FEW,0.07,WeatherDisplay:10.37,2013-03-19 18:30:00,
2013-03-19 14:35:00,34.8,29.9,29.57,NNE,12,2.0,7.0,82,0.00,-RA,FEW,0.07,WeatherDisplay:10.37,2013-03-19 18:35:00,
2013-03-19 14:40:00,35.3,30.4,29.56,NNE,15,5.0,10.0,82,0.00,-RA,FEW,0.07,WeatherDisplay:10.37,2013-03-19 18:40:00,
2013-03-19 14:46:00,37.3,31.7,29.56,North,11,8.1,8.1,80,0.02,-RA,FEW,0.08,WeatherDisplay:10.37,2013-03-19 18:46:00,
2013-03-19 14:51:00,37.7,31.1,29.55,NNE,18,8.0,8.0,77,0.03,-RA,FEW,0.08,WeatherDisplay:10.37,2013-03-19 18:51:00,
2013-03-19 14:56:00,38.9,32.0,29.54,NNE,12,9.2,9.2,76,0.03,RA,FEW,0.08,WeatherDisplay:10.37,2013-03-19 18:56:00,
2013-03-19 15:01:00,39.2,31.6,29.54,NE,39,10.4,10.4,74,0.04,RA,FEW,0.09,WeatherDisplay:10.37,2013-03-19 19:01:00,
2013-03-19 15:06:00,39.1,31.5,29.55,ENE,69,9.2,9.2,74,0.03,RA,FEW,0.09,WeatherDisplay:10.37,2013-03-19 19:06:00,
2013-03-19 15:11:00,39.0,31.4,29.55,North,7,10.0,10.0,74,0.04,RA,FEW,0.10,WeatherDisplay:10.37,2013-03-19 19:11:00,
2013-03-19 15:16:00,39.0,31.4,29.55,NE,43,6.9,6.9,74,0.04,RA,FEW,0.10,WeatherDisplay:10.37,2013-03-19 19:16:00,
2013-03-19 15:21:00,39.7,31.8,29.56,NNE,33,5.8,5.8,73,0.05,RA,FEW,0.11,WeatherDisplay:10.37,2013-03-19 19:21:00,
2013-03-19 15:26:00,39.5,31.6,29.57,WNW,298,3.5,0.0,73,0.04,-RA,FEW,0.12,WeatherDisplay:10.37,2013-03-19 19:26:00,
2013-03-19 15:31:00,39.5,31.6,29.58,North,6,6.0,6.0,73,0.05,-RA,FEW,0.12,WeatherDisplay:10.37,2013-03-19 19:31:00,
2013-03-19 15:36:00,39.1,31.2,29.58,North,355,3.0,3.0,73,0.05,-RA,FEW,0.12,WeatherDisplay:10.37,2013-03-19 19:36:00,
2013-03-19 15:41:00,38.9,31.0,29.57,North,350,3.0,3.0,73,0.06,-RA,FEW,0.13,WeatherDisplay:10.37,2013-03-19 19:41:00,
2013-03-19 15:46:00,38.5,30.6,29.57,North,0,3.5,3.5,73,0.06,-RA,FEW,0.13,WeatherDisplay:10.37,2013-03-19 19:46:00,
2013-03-19 15:51:00,38.2,30.6,29.57,North,357,4.0,4.0,74,0.05,-RA,FEW,0.13,WeatherDisplay:10.37,2013-03-19 19:51:00,
2013-03-19 15:56:00,37.9,30.4,29.57,North,0,3.5,0.0,74,0.05,OVC,FEW,0.13,WeatherDisplay:10.37,2013-03-19 19:56:00,
2013-03-19 16:01:00,37.8,30.6,29.56,NNE,13,3.5,3.5,75,0.04,OVC,FEW,0.13,WeatherDisplay:10.37,2013-03-19 20:01:00,
2013-03-19 16:06:00,37.8,30.3,29.56,North,0,3.5,0.0,74,0.04,OVC,FEW,0.13,WeatherDisplay:10.37,2013-03-19 20:06:00,
2013-03-19 16:11:00,37.8,30.6,29.56,North,0,5.8,5.8,75,0.03,OVC,FEW,0.13,WeatherDisplay:10.37,2013-03-19 20:11:00,
2013-03-19 16:16:00,37.7,30.2,29.56,North,0,2.3,0.0,74,0.03,OVC,FEW,0.13,WeatherDisplay:10.37,2013-03-19 20:16:00,
2013-03-19 16:21:00,37.7,30.5,29.56,North,358,1.2,0.0,75,0.02,OVC,FEW,0.13,WeatherDisplay:10.37,2013-03-19 20:21:00,
2013-03-19 16:26:00,37.8,30.6,29.56,North,358,2.3,2.3,75,0.02,OVC,FEW,0.13,WeatherDisplay:10.37,2013-03-19 20:26:00,
2013-03-19 16:31:00,37.7,30.2,29.56,NW,305,3.5,0.0,74,0.01,OVC,FEW,0.13,WeatherDisplay:10.37,2013-03-19 20:31:00,
2013-03-19 16:36:00,37.6,30.4,29.57,West,269,1.2,1.2,75,0.01,OVC,FEW,0.13,WeatherDisplay:10.37,2013-03-19 20:36:00,
2013-03-19 16:41:00,37.6,30.1,29.57,West,269,0.0,0.0,74,0.00,OVC,FEW,0.13,WeatherDisplay:10.37,2013-03-19 20:41:00,
2013-03-19 16:46:00,37.5,30.3,29.57,NNW,344,3.0,3.0,75,0.00,OVC,FEW,0.13,WeatherDisplay:10.37,2013-03-19 20:46:00,
2013-03-19 16:51:00,37.3,30.1,29.57,NW,323,4.0,4.0,75,0.00,OVC,FEW,0.13,WeatherDisplay:10.37,2013-03-19 20:51:00,
2013-03-19 16:56:00,37.2,30.0,29.58,NW,310,0.0,0.0,75,0.00,OVC,FEW,0.13,WeatherDisplay:10.37,2013-03-19 20:56:00,
2013-03-19 17:01:00,37.1,29.9,29.58,NW,309,0.0,0.0,75,0.00,OVC,FEW,0.13,WeatherDisplay:10.37,2013-03-19 21:01:00,
2013-03-19 17:06:00,36.9,30.0,29.58,NW,312,2.3,2.3,76,0.00,OVC,FEW,0.13,WeatherDisplay:10.37,2013-03-19 21:06:00,
2013-03-19 17:11:00,36.7,29.8,29.58,NW,322,1.0,1.0,76,0.00,OVC,FEW,0.13,WeatherDisplay:10.37,2013-03-19 21:11:00,
2013-03-19 17:16:00,36.6,30.1,29.57,NW,324,0.0,0.0,77,0.00,OVC,FEW,0.13,WeatherDisplay:10.37,2013-03-19 21:16:00,
2013-03-19 17:21:00,36.5,30.0,29.57,NNW,335,3.5,3.5,77,0.00,OVC,FEW,0.13,WeatherDisplay:10.37,2013-03-19 21:21:00,
2013-03-19 17:26:00,36.3,29.8,29.57,NNW,347,2.3,2.3,77,0.00,OVC,FEW,0.13,WeatherDisplay:10.37,2013-03-19 21:26:00,
2013-03-19 17:31:00,36.2,30.0,29.58,NW,304,2.3,0.0,78,0.00,OVC,FEW,0.13,WeatherDisplay:10.37,2013-03-19 21:31:00,
2013-03-19 17:36:00,36.1,29.9,29.58,NW,304,0.0,0.0,78,0.00,OVC,FEW,0.13,WeatherDisplay:10.37,2013-03-19 21:36:00,
2013-03-19 17:41:00,35.9,29.7,29.58,NNW,339,3.5,0.0,78,0.00,OVC,FEW,0.13,WeatherDisplay:10.37,2013-03-19 21:41:00,
2013-03-19 17:47:00,35.8,29.9,29.59,WNW,292,0.0,0.0,79,0.00,OVC,FEW,0.13,WeatherDisplay:10.37,2013-03-19 21:47:00,
2013-03-19 17:52:00,35.7,29.8,29.59,WNW,292,0.0,0.0,79,0.00,OVC,FEW,0.13,WeatherDisplay:10.37,2013-03-19 21:52:00,
2013-03-19 17:58:00,35.5,29.6,29.59,WNW,292,0.0,0.0,79,0.00,OVC,FEW,0.13,WeatherDisplay:10.37,2013-03-19 21:58:00,
2013-03-19 18:03:00,35.3,29.4,29.59,NW,318,3.5,3.5,79,0.00,OVC,FEW,0.13,WeatherDisplay:10.37,2013-03-19 22:03:00,
2013-03-19 18:08:00,35.2,29.6,29.59,NNW,336,0.0,0.0,80,0.00,OVC,FEW,0.13,WeatherDisplay:10.37,2013-03-19 22:08:00,
2013-03-19 18:13:00,35.1,29.6,29.59,NNW,334,2.0,2.0,80,0.00,OVC,FEW,0.13,WeatherDisplay:10.37,2013-03-19 22:13:00,
2013-03-19 18:19:00,34.8,29.3,29.59,WNW,300,1.2,1.2,80,0.00,OVC,FEW,0.13,WeatherDisplay:10.37,2013-03-19 22:19:00,
2013-03-19 18:24:00,34.6,29.4,29.59,NW,314,2.3,2.3,81,0.00,OVC,FEW,0.13,WeatherDisplay:10.37,2013-03-19 22:24:00,
2013-03-19 18:29:00,34.4,29.2,29.59,NW,309,1.2,0.0,81,0.00,OVC,FEW,0.13,WeatherDisplay:10.37,2013-03-19 22:29:00,
2013-03-19 18:34:00,34.3,29.1,29.60,NW,307,2.3,2.3,81,0.00,OVC,FEW,0.13,WeatherDisplay:10.37,2013-03-19 22:34:00,
2013-03-19 18:39:00,34.1,28.9,29.60,NW,307,0.0,0.0,81,0.00,OVC,FEW,0.13,WeatherDisplay:10.37,2013-03-19 22:39:00,
2013-03-19 18:44:00,34.1,29.2,29.60,NW,307,0.0,0.0,82,0.00,OVC,FEW,0.13,WeatherDisplay:10.37,2013-03-19 22:44:00,
2013-03-19 18:49:00,34.0,29.1,29.60,NW,304,1.2,0.0,82,0.00,OVC,FEW,0.13,WeatherDisplay:10.37,2013-03-19 22:49:00,
2013-03-19 18:54:00,33.8,28.9,29.60,WNW,302,0.0,0.0,82,0.00,OVC,FEW,0.13,WeatherDisplay:10.37,2013-03-19 22:54:00,
2013-03-19 18:59:00,33.7,28.8,29.60,WNW,302,2.3,0.0,82,0.00,OVC,FEW,0.13,WeatherDisplay:10.37,2013-03-19 22:59:00,
2013-03-19 19:04:00,33.5,28.9,29.60,North,349,3.0,3.0,83,0.00,OVC,FEW,0.13,WeatherDisplay:10.37,2013-03-19 23:04:00,
2013-03-19 19:09:00,33.4,28.8,29.60,NNW,327,0.0,0.0,83,0.00,OVC,FEW,0.13,WeatherDisplay:10.37,2013-03-19 23:09:00,
2013-03-19 19:14:00,33.4,28.8,29.60,WNW,300,2.3,2.3,83,0.00,OVC,FEW,0.13,WeatherDisplay:10.37,2013-03-19 23:14:00,
2013-03-19 19:20:00,33.2,28.6,29.60,WNW,300,4.6,0.0,83,0.00,OVC,FEW,0.13,WeatherDisplay:10.37,2013-03-19 23:20:00,
2013-03-19 19:25:00,33.2,28.6,29.60,NW,323,1.2,0.0,83,0.00,OVC,FEW,0.13,WeatherDisplay:10.37,2013-03-19 23:25:00,
2013-03-19 19:30:00,33.1,28.5,29.61,NW,312,3.5,0.0,83,0.00,OVC,FEW,0.13,WeatherDisplay:10.37,2013-03-19 23:30:00,
2013-03-19 19:35:00,33.1,28.5,29.62,NW,310,2.3,2.3,83,0.00,OVC,FEW,0.13,WeatherDisplay:10.37,2013-03-19 23:35:00,
2013-03-19 19:40:00,33.1,28.5,29.62,NW,311,0.0,0.0,83,0.00,OVC,FEW,0.13,WeatherDisplay:10.37,2013-03-19 23:40:00,
2013-03-19 19:45:00,33.0,28.4,29.62,NW,307,0.0,3.0,83,0.00,OVC,FEW,0.13,WeatherDisplay:10.37,2013-03-19 23:45:00,
2013-03-19 19:50:00,33.0,28.4,29.63,WNW,292,0.0,4.0,83,0.00,OVC,FEW,0.13,WeatherDisplay:10.37,2013-03-19 23:50:00,
2013-03-19 19:55:00,32.9,28.3,29.63,WNW,288,0.0,0.0,83,0.00,-RA,FEW,0.13,WeatherDisplay:10.37,2013-03-19 23:55:00,
2013-03-19 20:00:00,32.8,28.2,29.62,WNW,286,0.0,1.0,83,0.00,-RA,FEW,0.13,WeatherDisplay:10.37,2013-03-20 00:00:00,
2013-03-19 20:05:00,32.9,28.3,29.63,WNW,285,0.0,0.0,83,0.00,-RA,FEW,0.13,WeatherDisplay:10.37,2013-03-20 00:05:00,
2013-03-19 20:10:00,32.8,28.2,29.64,WNW,287,0.0,3.0,83,0.00,-RA,FEW,0.13,WeatherDisplay:10.37,2013-03-20 00:10:00,
2013-03-19 20:15:00,32.7,28.1,29.64,WNW,301,0.0,3.0,83,0.00,-RA,FEW,0.13,WeatherDisplay:10.37,2013-03-20 00:15:00,
2013-03-19 20:20:00,32.7,28.1,29.64,WNW,302,0.0,2.0,83,0.00,-RA,FEW,0.13,WeatherDisplay:10.37,2013-03-20 00:20:00,
2013-03-19 20:25:00,32.5,28.0,29.65,WNW,297,0.0,4.0,83,0.00,OVC,FEW,0.13,WeatherDisplay:10.37,2013-03-20 00:25:00,
2013-03-19 20:31:00,32.5,27.9,29.65,NW,323,2.3,2.3,83,0.00,OVC,FEW,0.13,WeatherDisplay:10.37,2013-03-20 00:31:00,
2013-03-19 20:36:00,32.4,27.8,29.65,NNW,335,2.3,2.3,83,0.00,OVC,FEW,0.13,WeatherDisplay:10.37,2013-03-20 00:36:00,
2013-03-19 20:41:00,32.3,27.7,29.65,NW,324,4.6,0.0,83,0.00,OVC,FEW,0.13,WeatherDisplay:10.37,2013-03-20 00:41:00,
2013-03-19 20:46:00,32.3,27.7,29.65,NW,326,1.2,0.0,83,0.00,OVC,FEW,0.13,WeatherDisplay:10.37,2013-03-20 00:46:00,
2013-03-19 20:51:00,32.3,27.7,29.65,West,279,2.3,0.0,83,0.00,OVC,FEW,0.13,WeatherDisplay:10.37,2013-03-20 00:51:00,
2013-03-19 20:56:00,32.3,27.7,29.65,West,279,1.2,0.0,83,0.00,OVC,FEW,0.13,WeatherDisplay:10.37,2013-03-20 00:56:00,
2013-03-19 21:01:00,32.2,27.6,29.65,West,279,2.3,0.0,83,0.00,OVC,FEW,0.13,WeatherDisplay:10.37,2013-03-20 01:01:00,
2013-03-19 21:06:00,32.3,27.7,29.65,West,279,0.0,0.0,83,0.00,OVC,FEW,0.13,WeatherDisplay:10.37,2013-03-20 01:06:00,
2013-03-19 21:11:00,32.2,27.6,29.65,West,279,0.0,0.0,83,0.00,OVC,FEW,0.13,WeatherDisplay:10.37,2013-03-20 01:11:00,
2013-03-19 21:16:00,32.2,27.6,29.65,West,279,0.0,0.0,83,0.00,OVC,FEW,0.13,WeatherDisplay:10.37,2013-03-20 01:16:00,
2013-03-19 21:21:00,32.2,27.6,29.64,West,279,0.0,0.0,83,0.00,OVC,FEW,0.13,WeatherDisplay:10.37,2013-03-20 01:21:00,
2013-03-19 21:26:00,32.2,27.6,29.64,West,279,0.0,0.0,83,0.00,OVC,FEW,0.13,WeatherDisplay:10.37,2013-03-20 01:26:00,
2013-03-19 21:31:00,32.1,27.5,29.65,West,279,0.0,0.0,83,0.00,OVC,FEW,0.13,WeatherDisplay:10.37,2013-03-20 01:31:00,
2013-03-19 21:36:00,32.0,27.4,29.65,West,279,2.3,0.0,83,0.00,OVC,FEW,0.13,WeatherDisplay:10.37,2013-03-20 01:36:00,
2013-03-19 21:41:00,31.9,27.3,29.65,West,279,1.2,0.0,83,0.00,OVC,FEW,0.13,WeatherDisplay:10.37,2013-03-20 01:41:00,
2013-03-19 21:46:00,32.0,27.4,29.65,West,279,0.0,0.0,83,0.00,OVC,FEW,0.13,WeatherDisplay:10.37,2013-03-20 01:46:00,
2013-03-19 21:51:00,31.9,27.3,29.65,West,279,2.3,2.3,83,0.00,OVC,FEW,0.13,WeatherDisplay:10.37,2013-03-20 01:51:00,
2013-03-19 21:56:00,31.9,27.3,29.64,West,279,1.0,0.0,83,0.00,OVC,FEW,0.13,WeatherDisplay:10.37,2013-03-20 01:56:00,
2013-03-19 22:01:00,32.0,27.4,29.64,West,279,0.0,0.0,83,0.00,OVC,FEW,0.13,WeatherDisplay:10.37,2013-03-20 02:01:00,
2013-03-19 22:06:00,32.0,27.4,29.65,West,279,1.2,1.2,83,0.00,BKN,FEW,0.13,WeatherDisplay:10.37,2013-03-20 02:06:00,
2013-03-19 22:11:00,32.0,27.4,29.65,West,279,0.0,0.0,83,0.00,BKN,FEW,0.13,WeatherDisplay:10.37,2013-03-20 02:11:00,
2013-03-19 22:16:00,31.9,27.3,29.66,West,279,1.2,0.0,83,0.00,BKN,FEW,0.13,WeatherDisplay:10.37,2013-03-20 02:16:00,
2013-03-19 22:21:00,31.9,27.3,29.66,West,279,2.3,0.0,83,0.00,BKN,FEW,0.13,WeatherDisplay:10.37,2013-03-20 02:21:00,
2013-03-19 22:26:00,31.9,27.3,29.66,West,279,2.3,0.0,83,0.00,BKN,FEW,0.13,WeatherDisplay:10.37,2013-03-20 02:26:00,
2013-03-19 22:31:00,31.9,27.3,29.65,West,279,3.5,0.0,83,0.00,BKN,FEW,0.13,WeatherDisplay:10.37,2013-03-20 02:31:00,
2013-03-19 22:36:00,32.0,27.4,29.66,West,279,1.0,0.0,83,0.00,BKN,FEW,0.13,WeatherDisplay:10.37,2013-03-20 02:36:00,
2013-03-19 22:41:00,32.0,27.4,29.66,West,279,2.3,0.0,83,0.00,BKN,FEW,0.13,WeatherDisplay:10.37,2013-03-20 02:41:00,
2013-03-19 22:46:00,32.0,27.4,29.65,West,279,3.5,3.5,83,0.00,BKN,FEW,0.13,WeatherDisplay:10.37,2013-03-20 02:46:00,
2013-03-19 22:51:00,32.0,27.4,29.65,West,279,0.0,0.0,83,0.00,BKN,FEW,0.13,WeatherDisplay:10.37,2013-03-20 02:51:00,
2013-03-19 22:56:00,32.0,27.4,29.65,West,279,3.5,3.5,83,0.00,-SN,FEW,0.13,WeatherDisplay:10.37,2013-03-20 02:56:00,
2013-03-19 23:01:00,31.9,27.3,29.65,West,279,4.0,4.0,83,0.00,-SN,FEW,0.13,WeatherDisplay:10.37,2013-03-20 03:01:00,
2013-03-19 23:06:00,31.9,27.3,29.65,West,279,4.6,4.6,83,0.00,-SN,FEW,0.13,WeatherDisplay:10.37,2013-03-20 03:06:00,
2013-03-19 23:11:00,31.8,27.2,29.65,West,279,3.5,3.5,83,0.00,-SN,FEW,0.13,WeatherDisplay:10.37,2013-03-20 03:11:00,
2013-03-19 23:16:00,31.8,27.2,29.64,West,279,3.5,3.5,83,0.00,-SN,FEW,0.13,WeatherDisplay:10.37,2013-03-20 03:16:00,
2013-03-19 23:21:00,31.9,27.3,29.63,West,279,2.3,2.3,83,0.00,-SN,FEW,0.13,WeatherDisplay:10.37,2013-03-20 03:21:00,
2013-03-19 23:26:00,31.8,27.2,29.63,West,279,3.5,3.5,83,0.00,-SN,FEW,0.13,WeatherDisplay:10.37,2013-03-20 03:26:00,
2013-03-19 23:31:00,31.8,27.5,29.64,West,279,5.8,5.8,84,0.00,-SN,FEW,0.13,WeatherDisplay:10.37,2013-03-20 03:31:00,
2013-03-19 23:36:00,31.7,27.4,29.65,West,279,5.8,5.8,84,0.00,-SN,FEW,0.13,WeatherDisplay:10.37,2013-03-20 03:36:00,
2013-03-19 23:41:00,31.7,27.1,29.65,West,279,0.0,0.0,83,0.00,-SN,FEW,0.13,WeatherDisplay:10.37,2013-03-20 03:41:00,
2013-03-19 23:46:00,31.7,27.1,29.66,West,279,1.2,1.2,83,0.00,-SN,FEW,0.13,WeatherDisplay:10.37,2013-03-20 03:46:00,
2013-03-19 23:51:00,31.7,27.1,29.66,West,279,6.0,6.0,83,0.00,-SN,FEW,0.13,WeatherDisplay:10.37,2013-03-20 03:51:00,
2013-03-19 23:56:00,31.6,27.0,29.66,West,279,3.5,3.5,83,0.00,-SN,FEW,0.13,WeatherDisplay:10.37,2013-03-20 03:56:00,